TimeEDT,TemperatureF,Dew PointF,Humidity,Sea Level PressureIn,VisibilityMPH,Wind Direction,Wind SpeedMPH,Gust SpeedMPH,PrecipitationIn,Events,Conditions,WindDirDegrees,DateUTC
12:51 AM,39.2,33.8,81,29.89,10.0,West,6.9,-,N/A,,Overcast,270,2013-03-12 04:51:00
12:53 AM,39.0,33.1,79,29.88,10.0,West,9.2,-,N/A,,Overcast,270,2013-03-12 04:53:00
1:53 AM,37.9,32.0,79,29.89,10.0,West,8.1,-,N/A,,Overcast,280,2013-03-12 05:53:00
2:53 AM,37.9,32.0,79,29.90,10.0,Variable,3.5,-,N/A,,Overcast,0,2013-03-12 06:53:00
3:53 AM,37.0,32.0,82,29.91,10.0,West,5.8,-,N/A,,Overcast,270,2013-03-12 07:53:00
4:53 AM,37.0,30.0,76,29.91,10.0,West,6.9,-,N/A,,Overcast,260,2013-03-12 08:53:00
5:14 AM,35.6,30.2,81,29.91,10.0,Variable,3.5,-,N/A,,Overcast,0,2013-03-12 09:14:00
5:37 AM,35.6,30.2,81,29.91,10.0,WNW,4.6,-,N/A,,Overcast,290,2013-03-12 09:37:00
5:53 AM,36.0,30.9,82,29.93,10.0,West,4.6,-,N/A,,Overcast,280,2013-03-12 09:53:00
6:26 AM,33.8,30.2,87,29.94,7.0,Variable,4.6,-,0.00,Snow,Light Snow,0,2013-03-12 10:26:00
6:53 AM,34.0,32.0,92,29.96,10.0,West,3.5,-,0.00,,Overcast,260,2013-03-12 10:53:00
7:07 AM,33.8,33.8,100,29.95,10.0,Calm,Calm,-,N/A,,Overcast,0,2013-03-12 11:07:00
7:17 AM,33.8,33.8,100,29.95,10.0,Calm,Calm,-,N/A,,Overcast,0,2013-03-12 11:17:00
7:34 AM,33.8,32.0,93,29.96,10.0,West,4.6,-,N/A,,Overcast,260,2013-03-12 11:34:00
7:53 AM,34.0,32.0,92,29.99,10.0,Variable,3.5,-,N/A,,Overcast,0,2013-03-12 11:53:00
8:14 AM,35.6,32.0,87,29.97,10.0,Calm,Calm,-,N/A,,Overcast,0,2013-03-12 12:14:00
8:39 AM,33.8,32.0,93,29.97,10.0,Variable,3.5,-,N/A,,Overcast,0,2013-03-12 12:39:00
8:53 AM,34.0,32.0,92,30.00,10.0,West,3.5,-,N/A,,Overcast,260,2013-03-12 12:53:00
9:53 AM,35.1,30.0,82,30.02,10.0,Variable,3.5,-,N/A,,Overcast,0,2013-03-12 13:53:00
10:53 AM,35.1,28.9,78,30.03,10.0,WSW,5.8,-,N/A,,Overcast,250,2013-03-12 14:53:00
11:53 AM,35.1,28.0,76,30.05,10.0,Variable,4.6,-,N/A,,Overcast,0,2013-03-12 15:53:00
12:53 PM,37.0,28.9,73,30.06,10.0,SW,9.2,-,N/A,,Overcast,230,2013-03-12 16:53:00
1:53 PM,41.0,30.9,67,30.03,10.0,Variable,6.9,-,N/A,,Overcast,0,2013-03-12 17:53:00
2:53 PM,43.0,30.9,62,30.02,10.0,Variable,3.5,-,N/A,,Overcast,0,2013-03-12 18:53:00
3:09 PM,44.6,30.2,57,30.01,10.0,Calm,Calm,-,N/A,,Overcast,0,2013-03-12 19:09:00
3:38 PM,44.6,30.2,57,30.01,10.0,Variable,6.9,-,N/A,,Overcast,0,2013-03-12 19:38:00
3:53 PM,43.0,30.0,60,30.03,10.0,West,10.4,18.4,N/A,,Overcast,270,2013-03-12 19:53:00
4:53 PM,46.0,28.9,51,30.01,10.0,Calm,Calm,-,N/A,,Scattered Clouds,0,2013-03-12 20:53:00
5:53 PM,45.0,28.9,53,30.01,10.0,Variable,5.8,-,N/A,,Clear,0,2013-03-12 21:53:00
6:53 PM,45.0,28.0,52,30.02,10.0,Calm,Calm,-,N/A,,Scattered Clouds,0,2013-03-12 22:53:00
7:53 PM,41.0,28.0,60,30.03,10.0,Calm,Calm,-,N/A,,Scattered Clouds,0,2013-03-12 23:53:00
8:53 PM,39.9,28.0,63,30.04,10.0,Calm,Calm,-,N/A,,Partly Cloudy,0,2013-03-13 00:53:00
9:53 PM,39.0,28.0,65,30.05,10.0,SW,5.8,-,N/A,,Partly Cloudy,230,2013-03-13 01:53:00
10:53 PM,39.9,28.0,63,30.06,10.0,West,8.1,-,N/A,,Scattered Clouds,260,2013-03-13 02:53:00
11:53 PM,39.0,28.0,65,30.07,10.0,WSW,6.9,-,N/A,,Clear,250,2013-03-13 03:53:00